Hlavní strana
METAR-TAF:

METAR-TAF

Letiště :

Springfield-Beckley Municipal Airport

Springfield, Ohio, Spojené státy americké

zeměpisná šířka: 39-50N, zeměpisná délka: 083-50W, výška: 321 m

Aktuální stav počasí

Zpráva byla vytvořena před 20 minutami, v 08:56 UTC
Severoseverozápadní vítr 4 kt
Teplota -10°C
Vlhkost vzduchu 92%
Tlak 1035 hPa
Viditelnost: 16.1 km
Jasno

METAR: KSGH 210856Z AUTO 34004KT 10SM CLR M10/M11 A3056 RMK AO2 SLP367 T11001111 53004

Čas: 04:16 (09:16 UTC)


TAF: chybějící

Stav a předpovědi počasí z více než 4 000 letišť (zprávy METAR a TAF).

Červené a žluté tečky na mapě představují dostupné meteorologické stanice.

Když kurzor umístíte na tečku, zobrazí se název stanice.

Pak kliknutím zobrazíte stav a předpověď počasí.

Chcete-li změnit mapu, kliknutím na zelené tlačítko se znaménkem +mapu přiblížíte, kliknutím na zelené tlačítko se znaménkem – mapu oddálíte a kliknutím na zelené šipky přejdete na sousední mapy.


METAR-TAF: